{"data":{"norad_id":66541,"epoch":"2026-05-24T20:59:17.998368Z","epoch_age_seconds":99984,"freshness":"FRESH","line1":"1 66541U 25265AB  26144.87451387  .00013413  00000+0  49593-3 0  9996","line2":"2 66541  42.9980 207.7921 0001743 274.9915  85.0738 15.27587453 28767","mean_motion":15.27587453,"eccentricity":0.0001743,"inclination_deg":42.998,"raan_deg":207.7921,"arg_perigee_deg":274.9915,"mean_anomaly_deg":85.0738,"bstar":0.00049593,"rev_number":2876,"period_min":94.266288792305,"perigee_km":481.83087832048,"apogee_km":484.2226800139,"semimajor_km":6861.1637791672,"source":"CELESTRAK","updated_at":"2026-05-25T13:38:21.254897Z"}}